TimeEDT,TemperatureF,Dew PointF,Humidity,Sea Level PressureIn,VisibilityMPH,Wind Direction,Wind SpeedMPH,Gust SpeedMPH,PrecipitationIn,Events,Conditions,WindDirDegrees,DateUTC
12:15 AM,50.0,47.1,90,30.16,10.0,Calm,Calm,-,N/A,,Clear,0,2013-05-15 04:15:00
12:35 AM,50.0,46.9,89,30.16,10.0,Calm,Calm,-,N/A,,Clear,0,2013-05-15 04:35:00
12:55 AM,50.0,47.3,90,30.16,10.0,Calm,Calm,-,N/A,,Clear,0,2013-05-15 04:55:00
1:15 AM,49.8,46.9,90,30.17,10.0,Calm,Calm,-,N/A,,Clear,0,2013-05-15 05:15:00
1:35 AM,49.1,46.4,90,30.17,10.0,Calm,Calm,-,N/A,,Clear,0,2013-05-15 05:35:00
1:55 AM,47.8,45.9,93,30.17,10.0,Calm,Calm,-,N/A,,Clear,0,2013-05-15 05:55:00
2:15 AM,47.8,46.2,94,30.16,10.0,Calm,Calm,-,N/A,,Clear,0,2013-05-15 06:15:00
2:35 AM,47.3,45.9,95,30.17,10.0,Calm,Calm,-,N/A,,Clear,0,2013-05-15 06:35:00
2:55 AM,46.6,45.1,95,30.17,7.0,Calm,Calm,-,N/A,,Clear,0,2013-05-15 06:55:00
3:15 AM,46.4,45.3,96,30.17,10.0,Calm,Calm,-,N/A,,Clear,0,2013-05-15 07:15:00
3:35 AM,46.4,45.1,95,30.16,7.0,Calm,Calm,-,N/A,,Clear,0,2013-05-15 07:35:00
3:55 AM,46.2,45.1,96,30.17,7.0,Calm,Calm,-,N/A,,Clear,0,2013-05-15 07:55:00
4:15 AM,45.5,44.4,96,30.17,10.0,West,3.5,-,N/A,,Clear,270,2013-05-15 08:15:00
4:35 AM,46.0,44.8,95,30.17,7.0,Calm,Calm,-,N/A,,Clear,0,2013-05-15 08:35:00
4:55 AM,44.8,43.7,96,30.18,5.0,Calm,Calm,-,N/A,,Clear,0,2013-05-15 08:55:00
5:15 AM,44.4,43.3,96,30.18,5.0,Calm,Calm,-,N/A,,Clear,0,2013-05-15 09:15:00
5:35 AM,44.6,43.5,96,30.18,7.0,Calm,Calm,-,N/A,,Clear,0,2013-05-15 09:35:00
5:55 AM,43.9,43.0,97,30.18,10.0,Calm,Calm,-,N/A,,Clear,0,2013-05-15 09:55:00
6:15 AM,43.2,42.1,96,30.18,7.0,Calm,Calm,-,N/A,,Clear,0,2013-05-15 10:15:00
6:35 AM,43.5,42.6,97,30.19,7.0,Calm,Calm,-,N/A,,Clear,0,2013-05-15 10:35:00
6:55 AM,43.5,42.6,97,30.19,7.0,Calm,Calm,-,N/A,,Clear,0,2013-05-15 10:55:00
7:15 AM,44.6,43.7,97,30.20,10.0,Calm,Calm,-,N/A,,Clear,0,2013-05-15 11:15:00
7:35 AM,46.2,45.1,96,30.21,7.0,Calm,Calm,-,N/A,,Clear,0,2013-05-15 11:35:00
7:55 AM,48.2,47.1,96,30.21,10.0,Calm,Calm,-,N/A,,Clear,0,2013-05-15 11:55:00
8:15 AM,50.7,49.6,96,30.21,10.0,Calm,Calm,-,N/A,,Clear,0,2013-05-15 12:15:00
8:35 AM,52.2,50.2,93,30.21,10.0,Calm,Calm,-,N/A,,Clear,0,2013-05-15 12:35:00
8:55 AM,55.8,50.5,83,30.21,10.0,Calm,Calm,-,N/A,,Clear,0,2013-05-15 12:55:00
9:15 AM,59.2,51.1,74,30.21,10.0,Calm,Calm,-,N/A,,Clear,0,2013-05-15 13:15:00
9:35 AM,62.4,52.3,70,30.20,10.0,Calm,Calm,-,N/A,,Clear,0,2013-05-15 13:35:00
9:55 AM,65.5,52.7,63,30.20,10.0,Calm,Calm,-,N/A,,Clear,0,2013-05-15 13:55:00
10:15 AM,68.5,51.8,55,30.19,10.0,Calm,Calm,-,N/A,,Clear,0,2013-05-15 14:15:00
10:35 AM,70.7,52.3,52,30.18,10.0,Calm,Calm,-,N/A,,Clear,0,2013-05-15 14:35:00
10:55 AM,73.4,50.4,44,30.18,10.0,WNW,4.6,-,N/A,,Clear,300,2013-05-15 14:55:00
11:15 AM,75.4,50.9,42,30.18,10.0,NW,3.5,16.1,N/A,,Clear,310,2013-05-15 15:15:00
11:35 AM,75.6,47.5,37,30.17,10.0,NNW,5.8,20.7,N/A,,Clear,340,2013-05-15 15:35:00
11:55 AM,76.8,48.7,37,30.16,10.0,North,10.4,-,N/A,,Clear,350,2013-05-15 15:55:00
12:15 PM,77.2,47.7,35,30.15,10.0,North,9.2,-,N/A,,Clear,10,2013-05-15 16:15:00
12:35 PM,78.1,48.0,35,30.15,10.0,North,8.1,-,N/A,,Clear,10,2013-05-15 16:35:00
12:55 PM,79.0,47.5,33,30.13,10.0,North,8.1,11.5,N/A,,Clear,360,2013-05-15 16:55:00
1:15 PM,79.9,46.9,31,30.12,10.0,North,10.4,-,N/A,,Clear,360,2013-05-15 17:15:00
1:35 PM,80.6,48.9,33,30.12,10.0,North,6.9,-,N/A,,Clear,360,2013-05-15 17:35:00
1:55 PM,81.1,47.3,30,30.11,10.0,North,9.2,-,N/A,,Clear,360,2013-05-15 17:55:00
2:15 PM,81.9,46.2,29,30.11,10.0,North,11.5,-,N/A,,Clear,350,2013-05-15 18:15:00
2:35 PM,82.4,44.1,26,30.10,10.0,North,5.8,-,N/A,,Clear,360,2013-05-15 18:35:00
2:55 PM,82.9,44.8,26,30.09,10.0,North,8.1,17.3,N/A,,Clear,360,2013-05-15 18:55:00
3:15 PM,83.3,44.1,25,30.08,10.0,NW,8.1,-,N/A,,Clear,310,2013-05-15 19:15:00
3:35 PM,81.5,42.1,25,30.08,10.0,North,9.2,-,N/A,,Scattered Clouds,350,2013-05-15 19:35:00
3:55 PM,83.1,42.8,24,30.07,10.0,NNW,6.9,-,N/A,,Scattered Clouds,330,2013-05-15 19:55:00
4:15 PM,82.6,42.6,24,30.06,10.0,North,4.6,-,N/A,,Clear,10,2013-05-15 20:15:00
4:35 PM,82.9,42.8,24,30.06,10.0,NNW,9.2,-,N/A,,Clear,340,2013-05-15 20:35:00
4:55 PM,82.6,42.6,24,30.06,10.0,North,5.8,-,N/A,,Clear,10,2013-05-15 20:55:00
5:15 PM,82.8,42.8,24,30.05,10.0,NNE,5.8,-,N/A,,Clear,20,2013-05-15 21:15:00
5:35 PM,82.6,44.2,26,30.05,10.0,NNW,4.6,-,N/A,,Clear,340,2013-05-15 21:35:00
5:55 PM,81.9,43.7,26,30.04,10.0,NW,6.9,-,N/A,,Clear,310,2013-05-15 21:55:00
6:15 PM,81.5,43.9,26,30.04,10.0,NNW,4.6,-,N/A,,Clear,330,2013-05-15 22:15:00
6:35 PM,80.2,44.4,28,30.04,10.0,NW,5.8,-,N/A,,Clear,310,2013-05-15 22:35:00
6:55 PM,78.8,46.8,32,30.04,10.0,WNW,5.8,-,N/A,,Clear,300,2013-05-15 22:55:00
7:15 PM,78.8,46.0,31,30.04,10.0,NNW,5.8,-,N/A,,Clear,340,2013-05-15 23:15:00
7:35 PM,77.9,46.0,32,30.04,10.0,WNW,3.5,-,N/A,,Clear,300,2013-05-15 23:35:00
7:55 PM,74.5,48.6,40,30.05,10.0,WNW,3.5,-,N/A,,Clear,300,2013-05-15 23:55:00
8:15 PM,69.8,50.4,50,30.06,10.0,Calm,Calm,-,N/A,,Clear,0,2013-05-16 00:15:00
8:35 PM,65.3,50.7,59,30.06,10.0,Calm,Calm,-,N/A,,Clear,0,2013-05-16 00:35:00
8:55 PM,62.6,50.0,63,30.07,10.0,Calm,Calm,-,N/A,,Clear,0,2013-05-16 00:55:00
9:15 PM,60.6,51.6,72,30.07,10.0,Calm,Calm,-,N/A,,Clear,0,2013-05-16 01:15:00
9:35 PM,60.6,48.7,65,30.07,10.0,Calm,Calm,-,N/A,,Clear,0,2013-05-16 01:35:00
9:55 PM,57.9,49.5,73,30.08,10.0,Calm,Calm,-,N/A,,Clear,0,2013-05-16 01:55:00
10:15 PM,56.3,49.6,78,30.08,10.0,Calm,Calm,-,N/A,,Clear,0,2013-05-16 02:15:00
10:35 PM,55.4,48.7,78,30.09,10.0,Calm,Calm,-,N/A,,Clear,0,2013-05-16 02:35:00
10:55 PM,54.7,48.6,80,30.10,10.0,Calm,Calm,-,N/A,,Clear,0,2013-05-16 02:55:00
11:15 PM,54.9,48.7,80,30.09,10.0,Calm,Calm,-,N/A,,Clear,0,2013-05-16 03:15:00
11:35 PM,53.6,48.4,82,30.09,10.0,Calm,Calm,-,N/A,,Clear,0,2013-05-16 03:35:00
11:55 PM,52.0,48.0,86,30.10,10.0,Calm,Calm,-,N/A,,Clear,0,2013-05-16 03:55:00